Time,TemperatureF,DewpointF,PressureIn,WindDirection,WindDirectionDegrees,WindSpeedMPH,WindSpeedGustMPH,Humidity,HourlyPrecipIn,Conditions,Clouds,dailyrainin,SoftwareType,DateUTC
2013-04-02 00:00:00,76.6,72.4,30.00,ESE,103,1.0,17.0,87,0.00,,,0.00,Wunderground v.1.15,2013-04-02 04:00:00,
2013-04-02 00:05:00,76.6,72.4,30.00,East,87,1.0,17.0,87,0.00,,,0.00,Wunderground v.1.15,2013-04-02 04:05:00,
2013-04-02 00:15:00,76.6,72.1,30.00,East,91,1.0,2.0,86,0.00,,,0.00,Wunderground v.1.15,2013-04-02 04:15:00,
2013-04-02 00:20:00,76.6,72.4,30.00,East,90,1.0,17.0,87,0.00,,,0.00,Wunderground v.1.15,2013-04-02 04:20:00,
2013-04-02 00:30:00,76.5,72.3,30.00,East,84,1.0,17.0,87,0.00,,,0.00,Wunderground v.1.15,2013-04-02 04:30:00,
2013-04-02 00:35:00,76.4,72.2,30.00,East,82,1.0,17.0,87,0.00,,,0.00,Wunderground v.1.15,2013-04-02 04:35:00,
2013-04-02 00:40:00,76.4,72.2,29.99,ESE,105,1.0,17.0,87,0.00,,,0.00,Wunderground v.1.15,2013-04-02 04:40:00,
2013-04-02 00:45:00,76.3,72.1,29.99,ESE,104,1.0,17.0,87,0.00,,,0.00,Wunderground v.1.15,2013-04-02 04:45:00,
2013-04-02 00:55:00,76.0,72.2,29.99,East,79,0.0,17.0,88,0.00,,,0.00,Wunderground v.1.15,2013-04-02 04:55:00,
2013-04-02 01:01:00,75.9,72.0,29.99,ESE,121,1.0,2.0,88,0.00,,,0.00,weatherlink.com 1.10,2013-04-02 05:01:00,
2013-04-02 01:10:00,75.8,72.0,29.99,East,92,1.0,1.0,88,0.00,,,0.00,Wunderground v.1.15,2013-04-02 05:10:00,
2013-04-02 01:15:00,75.5,71.7,29.99,East,91,0.0,17.0,88,0.00,,,0.00,Wunderground v.1.15,2013-04-02 05:15:00,
2013-04-02 01:30:00,75.3,72.0,29.98,East,91,0.0,0.0,89,0.00,,,0.00,weatherlink.com 1.10,2013-04-02 05:30:00,
2013-04-02 01:45:00,75.2,72.0,29.98,SSE,148,3.0,3.0,88,0.00,,,0.00,weatherlink.com 1.10,2013-04-02 05:45:00,
2013-04-02 02:00:00,75.5,71.0,29.97,ESE,115,0.0,3.0,87,0.00,,,0.00,weatherlink.com 1.10,2013-04-02 06:00:00,
2013-04-02 02:15:00,75.2,71.0,29.96,ESE,121,1.0,1.0,87,0.00,,,0.00,weatherlink.com 1.10,2013-04-02 06:15:00,
2013-04-02 02:30:00,75.1,71.0,29.96,East,89,1.0,2.0,88,0.00,,,0.00,weatherlink.com 1.10,2013-04-02 06:30:00,
2013-04-02 02:45:00,74.7,71.0,29.96,East,98,0.0,1.0,87,0.00,,,0.00,weatherlink.com 1.10,2013-04-02 06:45:00,
2013-04-02 03:00:00,73.6,70.0,29.96,East,98,0.0,1.0,89,0.00,,,0.00,weatherlink.com 1.10,2013-04-02 07:00:00,
2013-04-02 03:15:00,73.1,70.0,29.97,East,98,1.0,1.0,90,0.00,,,0.00,weatherlink.com 1.10,2013-04-02 07:15:00,
2013-04-02 03:31:00,72.6,70.0,29.97,East,98,0.0,1.0,90,0.00,,,0.00,weatherlink.com 1.10,2013-04-02 07:31:00,
2013-04-02 03:46:00,72.3,69.0,29.96,SE,136,0.0,1.0,90,0.00,,,0.00,weatherlink.com 1.10,2013-04-02 07:46:00,
2013-04-02 04:01:00,72.2,69.0,29.96,East,98,0.0,1.0,90,0.00,,,0.00,weatherlink.com 1.10,2013-04-02 08:01:00,
2013-04-02 04:16:00,71.9,69.0,29.96,East,98,0.0,1.0,90,0.00,,,0.00,weatherlink.com 1.10,2013-04-02 08:16:00,
2013-04-02 04:31:00,71.8,69.0,29.96,East,98,0.0,2.0,90,0.00,,,0.00,weatherlink.com 1.10,2013-04-02 08:31:00,
2013-04-02 04:46:00,71.8,69.0,29.95,SE,124,0.0,1.0,90,0.00,,,0.00,weatherlink.com 1.10,2013-04-02 08:46:00,
2013-04-02 05:31:00,71.4,68.0,29.96,SE,127,0.0,2.0,89,0.00,,,0.00,weatherlink.com 1.10,2013-04-02 09:31:00,
2013-04-02 06:31:00,71.0,68.0,29.98,East,101,0.0,0.0,89,0.00,,,0.00,weatherlink.com 1.10,2013-04-02 10:31:00,
2013-04-02 07:01:00,71.7,68.0,29.98,East,101,0.0,1.0,89,0.00,,,0.00,weatherlink.com 1.10,2013-04-02 11:01:00,
2013-04-02 07:16:00,73.2,70.0,29.98,SE,132,0.0,2.0,88,0.00,,,0.00,weatherlink.com 1.10,2013-04-02 11:16:00,
2013-04-02 07:31:00,76.2,71.0,29.99,SE,131,0.0,1.0,83,0.00,,,0.00,weatherlink.com 1.10,2013-04-02 11:31:00,
2013-04-02 07:46:00,78.6,71.0,29.99,East,94,0.0,2.0,77,0.00,,,0.00,weatherlink.com 1.10,2013-04-02 11:46:00,
2013-04-02 08:01:00,80.7,72.0,30.00,SE,141,0.0,2.0,74,0.00,,,0.00,weatherlink.com 1.10,2013-04-02 12:01:00,
2013-04-02 08:16:00,81.5,73.0,30.00,ESE,106,3.0,4.0,74,0.00,,,0.00,weatherlink.com 1.10,2013-04-02 12:16:00,
2013-04-02 08:31:00,81.5,73.0,30.00,SE,141,5.0,6.0,75,0.00,,,0.00,weatherlink.com 1.10,2013-04-02 12:31:00,
2013-04-02 08:46:00,82.6,73.0,30.00,East,95,3.0,6.0,72,0.00,,,0.00,weatherlink.com 1.10,2013-04-02 12:46:00,
2013-04-02 09:01:00,82.9,72.0,30.00,ENE,66,5.0,8.0,69,0.00,,,0.00,weatherlink.com 1.10,2013-04-02 13:01:00,
2013-04-02 09:16:00,83.1,71.0,30.00,East,95,7.0,8.0,67,0.00,,,0.00,weatherlink.com 1.10,2013-04-02 13:16:00,
2013-04-02 09:31:00,83.9,71.0,30.00,East,100,4.0,8.0,66,0.00,,,0.00,weatherlink.com 1.10,2013-04-02 13:31:00,
2013-04-02 09:46:00,86.1,72.0,30.00,SE,138,1.0,7.0,62,0.00,,,0.00,weatherlink.com 1.10,2013-04-02 13:46:00,
2013-04-02 10:02:00,86.5,70.0,30.00,SSE,160,5.0,9.0,59,0.00,,,0.00,weatherlink.com 1.10,2013-04-02 14:02:00,
2013-04-02 10:16:00,86.8,71.0,30.00,SSE,155,4.0,9.0,59,0.00,,,0.00,weatherlink.com 1.10,2013-04-02 14:16:00,
2013-04-02 10:31:00,87.0,71.0,30.00,East,91,6.0,12.0,60,0.00,,,0.00,weatherlink.com 1.10,2013-04-02 14:31:00,
2013-04-02 10:47:00,88.3,71.0,29.99,ESE,111,4.0,9.0,57,0.00,,,0.00,weatherlink.com 1.10,2013-04-02 14:47:00,
2013-04-02 11:02:00,88.3,72.0,29.99,SE,134,2.0,9.0,58,0.00,,,0.00,weatherlink.com 1.10,2013-04-02 15:02:00,
2013-04-02 11:17:00,89.0,72.0,29.99,SSE,148,1.0,8.0,57,0.00,,,0.00,weatherlink.com 1.10,2013-04-02 15:17:00,
2013-04-02 11:32:00,89.0,72.0,29.98,SE,127,4.0,10.0,57,0.00,,,0.00,weatherlink.com 1.10,2013-04-02 15:32:00,
2013-04-02 11:47:00,89.7,71.0,29.98,South,180,3.0,12.0,55,0.00,,,0.00,weatherlink.com 1.10,2013-04-02 15:47:00,
2013-04-02 12:02:00,89.7,71.0,29.97,SSE,150,3.0,8.0,55,0.00,,,0.00,weatherlink.com 1.10,2013-04-02 16:02:00,
2013-04-02 12:17:00,89.5,71.0,29.97,SE,124,3.0,13.0,54,0.00,,,0.00,weatherlink.com 1.10,2013-04-02 16:17:00,
2013-04-02 12:47:00,89.2,71.0,29.96,South,172,2.0,12.0,55,0.00,,,0.00,weatherlink.com 1.10,2013-04-02 16:47:00,
2013-04-02 13:02:00,89.3,70.0,29.95,ESE,117,4.0,11.0,54,0.00,,,0.00,weatherlink.com 1.10,2013-04-02 17:02:00,
2013-04-02 13:17:00,89.9,70.0,29.95,SW,227,3.0,12.0,53,0.00,,,0.00,weatherlink.com 1.10,2013-04-02 17:17:00,
2013-04-02 13:32:00,90.6,71.0,29.94,SSE,155,1.0,12.0,53,0.00,,,0.00,weatherlink.com 1.10,2013-04-02 17:32:00,
2013-04-02 13:47:00,90.9,70.0,29.93,South,170,2.0,9.0,51,0.00,,,0.00,weatherlink.com 1.10,2013-04-02 17:47:00,
2013-04-02 14:02:00,90.6,71.0,29.93,WSW,250,3.0,7.0,52,0.00,,,0.00,weatherlink.com 1.10,2013-04-02 18:02:00,
2013-04-02 14:17:00,91.3,70.0,29.92,SE,141,2.0,8.0,50,0.00,,,0.00,weatherlink.com 1.10,2013-04-02 18:17:00,
2013-04-02 14:32:00,91.2,70.0,29.92,SW,215,1.0,10.0,50,0.00,,,0.00,weatherlink.com 1.10,2013-04-02 18:32:00,
2013-04-02 14:47:00,90.6,69.0,29.92,SSE,153,3.0,11.0,49,0.00,,,0.00,weatherlink.com 1.10,2013-04-02 18:47:00,
2013-04-02 15:02:00,90.0,69.0,29.92,East,96,3.0,7.0,50,0.00,,,0.00,weatherlink.com 1.10,2013-04-02 19:02:00,
2013-04-02 15:17:00,89.9,69.0,29.92,WNW,288,2.0,7.0,50,0.00,,,0.00,weatherlink.com 1.10,2013-04-02 19:17:00,
2013-04-02 15:32:00,90.4,69.0,29.92,SSE,151,2.0,8.0,49,0.00,,,0.00,weatherlink.com 1.10,2013-04-02 19:32:00,
2013-04-02 15:47:00,90.2,70.0,29.92,SSW,198,3.0,7.0,51,0.00,,,0.00,weatherlink.com 1.10,2013-04-02 19:47:00,
2013-04-02 16:02:00,89.8,69.0,29.92,WNW,283,3.0,7.0,51,0.00,,,0.00,weatherlink.com 1.10,2013-04-02 20:02:00,
2013-04-02 16:17:00,90.4,70.0,29.92,SSW,212,4.0,7.0,52,0.00,,,0.00,weatherlink.com 1.10,2013-04-02 20:17:00,
2013-04-02 16:32:00,90.5,71.0,29.92,South,186,3.0,7.0,52,0.00,,,0.00,weatherlink.com 1.10,2013-04-02 20:32:00,
2013-04-02 16:47:00,90.5,71.0,29.92,SSE,156,1.0,8.0,52,0.00,,,0.00,weatherlink.com 1.10,2013-04-02 20:47:00,
2013-04-02 17:02:00,90.6,71.0,29.93,SSW,205,2.0,5.0,53,0.00,,,0.00,weatherlink.com 1.10,2013-04-02 21:02:00,
2013-04-02 17:32:00,89.2,71.0,29.93,SSE,159,1.0,3.0,55,0.00,,,0.00,weatherlink.com 1.10,2013-04-02 21:32:00,
2013-04-02 17:47:00,88.7,71.0,29.93,South,174,1.0,6.0,56,0.00,,,0.00,weatherlink.com 1.10,2013-04-02 21:47:00,
2013-04-02 18:02:00,87.3,70.0,29.93,SE,139,0.0,4.0,57,0.00,,,0.00,weatherlink.com 1.10,2013-04-02 22:02:00,
2013-04-02 18:17:00,85.5,70.0,29.93,ESE,115,0.0,4.0,61,0.00,,,0.00,weatherlink.com 1.10,2013-04-02 22:17:00,
2013-04-02 18:32:00,83.7,69.0,29.94,SE,129,1.0,7.0,62,0.00,,,0.00,weatherlink.com 1.10,2013-04-02 22:32:00,
2013-04-02 18:47:00,82.8,70.0,29.94,SW,215,2.0,6.0,65,0.00,,,0.00,weatherlink.com 1.10,2013-04-02 22:47:00,
2013-04-02 19:02:00,82.1,70.0,29.95,SSE,159,1.0,3.0,67,0.00,,,0.00,weatherlink.com 1.10,2013-04-02 23:02:00,
2013-04-02 19:17:00,81.7,71.0,29.95,South,172,2.0,3.0,69,0.00,,,0.00,weatherlink.com 1.10,2013-04-02 23:17:00,
2013-04-02 19:33:00,81.1,70.0,29.96,South,184,0.0,3.0,70,0.00,,,0.00,weatherlink.com 1.10,2013-04-02 23:33:00,
2013-04-02 19:48:00,80.7,71.0,29.96,SE,135,1.0,3.0,72,0.00,,,0.00,weatherlink.com 1.10,2013-04-02 23:48:00,
2013-04-02 20:03:00,80.3,71.0,29.96,SE,132,1.0,2.0,72,0.00,,,0.00,weatherlink.com 1.10,2013-04-03 00:03:00,
2013-04-02 20:17:00,79.2,70.0,29.97,East,91,0.0,2.0,74,0.00,,,0.00,weatherlink.com 1.10,2013-04-03 00:17:00,
2013-04-02 20:33:00,79.1,70.0,29.97,East,91,0.0,1.0,74,0.00,,,0.00,weatherlink.com 1.10,2013-04-03 00:33:00,
2013-04-02 20:48:00,79.1,70.0,29.98,East,91,0.0,0.0,74,0.00,,,0.00,weatherlink.com 1.10,2013-04-03 00:48:00,
2013-04-02 21:03:00,79.0,70.0,29.98,East,92,0.0,1.0,75,0.00,,,0.00,weatherlink.com 1.10,2013-04-03 01:03:00,
2013-04-02 21:18:00,78.3,70.0,29.99,East,94,0.0,1.0,76,0.00,,,0.00,weatherlink.com 1.10,2013-04-03 01:18:00,
2013-04-02 21:33:00,78.0,70.0,29.99,ESE,123,0.0,2.0,77,0.00,,,0.00,weatherlink.com 1.10,2013-04-03 01:33:00,
2013-04-02 21:48:00,77.5,70.0,30.00,ESE,122,0.0,1.0,77,0.00,,,0.00,weatherlink.com 1.10,2013-04-03 01:48:00,
2013-04-02 22:18:00,76.8,70.0,30.00,ESE,122,0.0,1.0,79,0.00,,,0.00,weatherlink.com 1.10,2013-04-03 02:18:00,
2013-04-02 22:33:00,76.5,70.0,30.01,East,91,2.0,2.0,80,0.00,,,0.00,weatherlink.com 1.10,2013-04-03 02:33:00,
2013-04-02 22:48:00,76.1,70.0,30.00,East,91,0.0,1.0,81,0.00,,,0.00,weatherlink.com 1.10,2013-04-03 02:48:00,
2013-04-02 23:03:00,75.8,70.0,30.00,East,91,1.0,1.0,81,0.00,,,0.00,weatherlink.com 1.10,2013-04-03 03:03:00,
2013-04-02 23:18:00,75.2,70.0,30.00,East,91,0.0,1.0,83,0.00,,,0.00,weatherlink.com 1.10,2013-04-03 03:18:00,
2013-04-02 23:35:00,75.0,70.0,30.00,East,91,0.0,0.0,83,0.00,,,0.00,weatherlink.com 1.10,2013-04-03 03:35:00,
2013-04-02 23:48:00,74.7,69.0,29.99,East,91,0.0,1.0,83,0.00,,,0.00,weatherlink.com 1.10,2013-04-03 03:48:00,